Regional Weather Roundup
Issued by NWS

Home | Current Version | Previous Version | Graphics & Text | Print | Product List | Glossary On
Versions: 1 2 3 4 5 6 7 8 9 10 11 12 13 14 15 16 17 18 19 20 21 22 23 24 25 26 27 28 29 30 31 32 33 34 35 36 37 38 39 40 41 42 43 44 45 46 47 48 49 50
000
ASUS43 KLMK 201902
RWRKY
KENTUCKY REGIONAL WEATHER ROUNDUP
NATIONAL WEATHER SERVICE LOUISVILLE KY
300 PM EDT WED AUG 20 2014

NOTE "FAIR" INDICATES FEW OR NO CLOUDS BELOW 12,000 FEET
WITH NO SIGNIFICANT WEATHER AND/OR OBSTRUCTIONS TO VISIBILITY.

KYZ001>023-026-027-061>063-070>075-202000-
WESTERN AND SOUTH CENTRAL KENTUCKY

CITY           SKY/WX    TMP DP  RH WIND       PRES   REMARKS
PADUCAH        PTSUNNY   94  76  55 W7        29.99S HX 106
HENDERSON      CLOUDY    84  75  74 NW7       30.00R HX  92
OWENSBORO      CLOUDY    88  78  72 NW8       30.01R HX 101
HOPKINSVILLE   PTSUNNY   93  74  54 W10       29.98F HX 103
BOWLING GREEN  CLOUDY    92  75  57 N6        29.97F HX 103
GLASGOW        CLOUDY    87  75  66 SW3       29.98F HX  96
$$

KYZ024-025-028>034-038-045-046-053-202000-
NORTH CENTRAL KENTUCKY

CITY           SKY/WX    TMP DP  RH WIND       PRES   REMARKS
LOUISVILLE/SDF CLOUDY    90  72  55 W12       29.98R HX  97
LOUISVILLE/LOU CLOUDY    89  70  53 W13       29.98R HX  94
FORT KNOX      CLOUDY    86  75  70 W8        29.99R THUNDER HX  95
$$

KYZ035>037-039>044-047>052-055>060-089>105-202000-
NORTHEAST KENTUCKY

CITY           SKY/WX    TMP DP  RH WIND       PRES   REMARKS
LEXINGTON      MOSUNNY   89  72  56 W9        30.00S HX  96
COVINGTON      CLOUDY    85  67  54 W9        29.98R
FRANKFORT      PTSUNNY   86  70  58 W7        29.98S HX  90
$$

KYZ054-064>069-076>088-106>120-202000-
SOUTHEAST KENTUCKY

CITY           SKY/WX    TMP DP  RH WIND       PRES   REMARKS
JACKSON        MOSUNNY   85  71  63 VRB5      30.03F HX  90
LONDON         MOSUNNY   89  72  56 W8        30.02F HX  96
SOMERSET       MOSUNNY   86  72  62 W7        30.02F HX  92
MIDDLESBORO    PTSUNNY   86  74  66 SW5       30.02F HX  94
MONTICELLO     PTCLDY    90  76  63 W6        30.02F HX 101
$$




USA.gov is the U.S. government's official web portal to all federal, state and local government web resources and services.